Regional Weather Roundup
Issued by NWS

Home | Current Version | Previous Version | Graphics & Text | Print | Product List | Glossary On
Versions: 1 2 3 4 5 6 7 8 9 10 11 12 13 14 15 16 17 18 19 20 21 22 23 24 25 26 27 28 29 30 31 32 33 34 35 36 37 38 39 40 41 42 43 44 45 46 47 48 49 50
000
ASUS43 KDMX 291307
RWRIA

WEATHER ROUNDUP FOR IOWA
NATIONAL WEATHER SERVICE DES MOINES IA
800 AM CDT FRI AUG 29 2014

NOTE: "FAIR" INDICATES FEW OR NO CLOUDS BELOW 12,000 FEET WITH NO
SIGNIFICANT WEATHER AND/OR OBSTRUCTIONS TO VISIBILITY.

* - THESE STATIONS ARE NOT NWS STATIONS...THUS NOT UNDER NWS
QUALITY CONTROL.  THEY ALSO DO NOT REPORT WEATHER SUCH
AS PRECIPITATION OR FOG.

IAZ001>003-012>014-020>022-031>034-043>046-291400-
   NORTHWEST IOWA

CITY           SKY/WX    TMP DP  RH WIND       PRES   REMARKS
CARROLL *      CLOUDY    66  66 100 SE9       29.83S
DENISON *      PTSUNNY   68  68 100 CALM      29.82R
LE MARS *      PTSUNNY   70  68  94 SE8       29.81R
ORANGE CITY *  LGT RAIN  70  66  88 S7        29.81R
SHELDON *      CLOUDY    68  68 100 S8        29.80S
SIOUX CITY     CLOUDY    71  69  93 SE7       29.80R FOG
SPENCER        CLOUDY    69  66  90 S8        29.82R
STORM LAKE *   SUNNY     68  68 100 S14G20    29.83R
$$

IAZ055>058-069>071-079>083-090>094-291400-
   SOUTHWEST IOWA

CITY           SKY/WX    TMP DP  RH WIND       PRES   REMARKS
ATLANTIC *     SUNNY     70  68  94 S6        29.83S
AUDUBON *      SUNNY     70  68  94 CALM      29.84S FOG
CLARINDA *     SUNNY     70  68  94 S5        29.85S
COUNCIL BLFS * CLOUDY    70  70 100 SE6       29.80F FOG
CRESTON *      PTSUNNY   70  70 100 SE9       29.86F FOG
HARLAN  *      MOSUNNY   68  68 100 CALM      29.86S
RED OAK *      PTSUNNY   70  68  94 S5        29.83S
SHENANDOAH *   MOSUNNY   70  68  94 SE7       29.83S
$$

IAZ047>049-059>061-072>074-084-291400-
   CENTRAL IOWA

CITY           SKY/WX    TMP DP  RH WIND       PRES   REMARKS
AMES           MOSUNNY   67  67 100 SE5       29.85F
ANKENY *       PTSUNNY   70  68  94 SE8       29.85S
CHARITON *     SUNNY     72  70  94 SE9       29.87F
DES MOINES     MOSUNNY   70  68  93 SE8       29.84F FOG
GRINNELL*      MOSUNNY   70  68  94 SE7       29.89S FOG
KNOXVILLE *    CLOUDY    70  68  94 SE6       29.87R FOG
MARSHALLTOWN   SUNNY     68  67  96 S8        29.87S FOG
PELLA *          N/A     70  70 100 SE7       29.89S FOG
PERRY *        PTSUNNY   66  66 100 SE5       29.84S
$$

IAZ004>006-015-016-023>025-035-036-291400-
   NORTH CENTRAL IOWA

CITY           SKY/WX    TMP DP  RH WIND       PRES   REMARKS
ALGONA *       SUNNY     68  66  94 S12G18    29.82R
CLARION *      SUNNY     70  66  88 SE10G18   29.84R
ESTHERVILLE    CLOUDY    66  66 100 S5        29.81R
FORT DODGE *   PTSUNNY   70  64  83 SE8       29.83S
MASON CITY     PTSUNNY   67  66  97 S12       29.84S
FOREST CITY *  SUNNY     68  68 100 SE7       29.82S
IOWA FALLS *     N/A     66  66 100 SE3       29.88S
$$

IAZ007>011-017>019-026>030-037>042-050>054-066-291400-
   NORTHEAST IOWA

CITY           SKY/WX    TMP DP  RH WIND       PRES   REMARKS
CEDAR RAPIDS   SUNNY     70  69  97 SE6       29.90R FOG
CHARLES CITY * SUNNY     68  66  94 S8        29.87F
CLINTON *      MOSUNNY   70  66  88 SE7       29.95F
DECORAH *      MOSUNNY   68  68 100 SE7       29.88S FOG
DUBUQUE        CLOUDY    68  67  96 S9        29.93S FOG
MONTICELLO *   CLOUDY    68  68 100 SE5       29.91S FOG
OELWEIN *      MOSUNNY   68  68 100 S8        29.89S FOG
WATERLOO       MOSUNNY   69  67  93 S6        29.87R
$$

IAZ064-065-067-068-078-291400-
   EAST CENTRAL IOWA

CITY           SKY/WX    TMP DP  RH WIND       PRES   REMARKS
DAVENPORT      MOSUNNY   71  67  87 S3        29.93S
IOWA CITY      SUNNY     70  69  97 SE6       29.91S
MT. PLEASANT * SUNNY     73  70  88 S8        29.91F FOG
MUSCATINE *    SUNNY     72  70  94 SE5       29.91F
QUAD CITIES    MOSUNNY   73  68  84 S7        29.92R
$$

IAZ062-063-075>077-085>089-095>099-291400-
   SOUTHEAST IOWA

CITY           SKY/WX    TMP DP  RH WIND       PRES   REMARKS
BURLINGTON     SUNNY     73  70  90 S12       29.92S
FAIRFIELD *    MOSUNNY   70  68  94 S8        29.91R FOG
FORT MADISON * MOSUNNY   73  72  94 S9        29.93S FOG
KEOKUK *       SUNNY     73  70  88 S8        29.91F
OSKALOOSA *      N/A     70  68  94 SE8       29.90R FOG
CENTERVILLE *  SUNNY     70  70 100 S5        29.91S
OTTUMWA        SUNNY     71  69  93 S10       29.88S FOG
WASHINGTON *   MOSUNNY   70  70 100 SE5       29.91S FOG
$$

ABBREVIATIONS USED IN REMARKS
   TC - TEMPERATURES IN CELSIUS
  WCI - WIND CHILL INDEX
   HX - HEAT INDEX
  VSB - VISIBILITY
$$



USA.gov is the U.S. government's official web portal to all federal, state and local government web resources and services.